Location: Unspecified
(0.0000°N, 0.0000°E)
Time: 20:18:43
(UTC+00:00)

Transit 2A - All Passes

Search period start: 30 September 2016 00:00
Search period end: 10 October 2016 00:00
Orbit: 593 x 967 km, 66.7° (Epoch: 30 September)

Date Brightness Start Highest point End Pass type
(mag) Time Alt. Az. Time Alt. Az. Time Alt. Az.
30 Sep - 00:32:50 10° WNW 00:33:29 10° WNW 00:34:09 10° WNW night (unlit)
30 Sep - 11:21:30 10° NW 11:25:49 36° WSW 11:29:52 10° S daylight
30 Sep - 22:10:55 10° S 22:16:21 40° ESE 22:22:08 10° NE night (unlit)
30 Sep - 23:55:35 10° WSW 23:59:27 18° WNW 00:03:26 10° NNW night (unlit)
01 Oct - 10:47:12 10° NNW 10:51:55 68° WSW 10:56:17 10° SSE daylight
01 Oct - 21:37:43 10° SSE 21:42:26 25° ESE 21:47:26 10° NE night (unlit)
01 Oct - 23:20:26 10° SW 23:25:26 28° WNW 23:30:41 10° NNW night (unlit)
02 Oct - 10:13:16 10° NNW 10:18:00 65° ENE 10:22:22 10° SSE daylight
02 Oct - 21:05:09 10° SE 21:08:32 16° ESE 21:12:03 10° ENE night (unlit)
02 Oct - 22:45:51 10° SW 22:51:27 44° WNW 22:57:24 10° N night (unlit)
03 Oct - 09:39:42 10° N 09:44:02 35° ENE 09:48:05 10° SE daylight
03 Oct - 22:11:36 10° SSW 22:17:29 71° WNW 22:23:45 10° NNE night (unlit)
04 Oct - 09:06:36 10° NNE 09:10:03 20° ENE 09:13:19 10° ESE daylight
04 Oct - 10:49:52 10° WNW 10:52:54 17° WSW 10:55:49 10° SSW daylight
04 Oct - 21:37:40 10° SSW 21:43:33 74° ESE 21:49:49 10° NNE night (unlit)
05 Oct - 08:34:44 10° NE 08:36:01 11° ENE 08:37:17 10° E daylight
05 Oct - 10:14:55 10° NW 10:19:00 31° WSW 10:22:53 10° S daylight
05 Oct - 21:04:01 10° S 21:09:38 46° ESE 21:15:35 10° NE night (unlit)
05 Oct - 22:49:17 10° WSW 22:52:45 16° WNW 22:56:20 10° NNW night (unlit)
06 Oct - 09:40:31 10° NNW 09:45:07 57° WSW 09:49:25 10° S daylight
06 Oct - 20:30:42 10° SSE 20:35:44 29° ESE 20:40:59 10° NE night (unlit)
06 Oct - 22:13:54 10° WSW 22:18:44 25° WNW 22:23:47 10° NNW night (unlit)
07 Oct - 09:06:30 10° NNW 09:11:11 76° ENE 09:15:34 10° SSE daylight
07 Oct - 19:57:55 10° SSE 20:01:49 18° ESE 20:05:51 10° ENE night (unlit)
07 Oct - 21:39:12 10° SW 21:44:45 40° WNW 21:50:35 10° N night (unlit)
08 Oct - 08:32:50 10° N 08:37:15 40° ENE 08:41:22 10° SE daylight
08 Oct - 19:26:54 10° ESE 19:27:53 10° ESE 19:28:53 10° E visible
08 Oct - 21:04:53 10° SSW 21:10:46 63° WNW 21:17:01 10° N night (unlit)
09 Oct - 07:59:36 10° NNE 08:03:16 23° ENE 08:06:44 10° ESE daylight
09 Oct - 09:43:33 10° WNW 09:46:06 15° WSW 09:48:34 10° SW daylight
09 Oct - 20:30:52 10° SSW 20:36:49 83° ESE 20:43:10 10° NNE visible
